www.pogodaiklimat.ru

Погода и климат >> Архив погоды >> Россия >> Чукотка >> Мыс Шмидта


ПОГОДА на Мысе Шмидта

  • Прогноз погоды на Мысе Шмидта
  • Монитор погоды на Мысе Шмидта

АРХИВ ПОГОДЫ на Мысе Шмидта

Время (UTC), дата Ветер
(напр.,м/с)
 
Видим.   Явления Облачность Т
(С)
Тd
(С)
f
(%)
Тe
(С)
Тes
(С)
Комфортность P
(гПа)
Po
(гПа)
Тmin
(С)
Tmax
(С)
R
(мм)
R24
(мм)
S
(см)
21 17.04 С 5 н/о н/о -16.4 -17.8 89 -26 -26 1027.0 1026.6 -19.6
00 18.04 СЗ 5 н/о н/о -14.9 -16.5 88 -24 -24 1027.5 1027.1
03 18.04 СЗ 5 н/о н/о -14.2 -16.0 86 -23 -23 1027.1 1026.7
06 18.04 СЗ 3 н/о н/о -14.9 -17.0 84 -21 -21 1027.0 1026.6
09 18.04 ЮЗ 1 н/о н/о -20.3 -21.8 88 -23 -23 1026.4 1026.0 -13.6
12 18.04 СЗ 5 н/о н/о -18.7 -20.3 87 -28 -28 1023.0 1022.6
18 18.04 ЮВ 2 н/о н/о -27.0 -29.6 78 -34 -34 опасность
обморожения
1021.4 1021.0
00 19.04 ЮВ 6 н/о н/о -17.2 -18.8 87 -27 -27 1018.0 1017.6
03 19.04 ЮВ 7 н/о н/о -14.2 -16.5 83 -24 -24 1016.1 1015.7
06 19.04 ЮВ 1 н/о н/о -15.9 -18.1 83 -19 -19 1015.4 1015.0
09 19.04 ЮВ 3 н/о н/о -20.7 -22.1 88 -28 -28 1016.1 1015.6 -14.0
12 19.04 Ю 1 н/о н/о -23.7 -25.7 84 -27 -27 1016.7 1016.3
15 19.04 ЮВ 1 н/о н/о -23.4 -25.4 84 -27 -27 1017.2 1016.8
18 19.04 З 1 н/о н/о -24.4 -26.7 81 -28 -28 1018.2 1017.7
21 19.04 СЗ 3 н/о н/о -21.6 -23.6 84 -30 -30 1019.5 1019.0 -27.9
00 20.04 С 3 н/о н/о -19.4 -21.3 85 -27 -27 1020.0 1019.6
03 20.04 С 2 н/о н/о -17.3 -19.1 86 -23 -23 1020.1 1019.7
06 20.04 штиль 0 н/о н/о -17.8 -19.4 87 -18 -18 1019.5 1019.1
09 20.04 штиль 0 н/о н/о -19.6 -21.4 86 -20 -20 1019.6 1019.2 -14.5
12 20.04 СЗ 2 н/о н/о -19.4 -21.1 86 -25 -25 1019.2 1018.8
15 20.04 СЗ 1 н/о н/о -20.9 -22.8 85 -24 -24 1018.3 1017.9
18 20.04 З 1 н/о н/о -19.4 -21.1 86 -22 -22 1018.2 1017.8
21 20.04 СЗ 3 н/о н/о -16.9 -18.5 87 -24 -24 1018.1 1017.7 -20.9
00 21.04 СЗ 7 н/о н/о -14.6 -16.1 88 -25 -25 1018.3 1017.9
03 21.04 СЗ 7-11
{12}
н/о н/о -12.8 -14.8 85 -22 -22 1018.3 1017.9
06 21.04 СЗ 8-12
{12}
н/о н/о -12.2 -13.7 89 -22 -22 1018.4 1018.0
09 21.04 СЗ 9-12
{13}
н/о н/о -12.8 -14.2 89 -24 -24 1019.1 1018.7 -12.0

 

Местоположение метеостанции Мыс Шмидта (Чукотка, Россия): широта 68.87 долгота -179.00 высота над уровнем моря 4 м.

В архиве по умолчанию представлена погода на Мысе Шмидта за последнюю неделю. Архивные данные за месяц целиком и за предыдущие месяцы, начиная с января 2011 года, Вы можете получить, выбрав интересующий диапазон дат из раскрывающегося списка и нажав кнопку "Ввод!".


*Определитесь, кто Вы:
робот инопланетянин человек

Внимание! Время в таблицах - всемирное. Для получения местного времени необходимо прибавить поправку, которая равна 12 ч.

Смотрите также архив погоды в соседних городах и на ближайших метеорологических станциях:

Погода на Мысе Ванкарем (Чукотка, Россия) (201 км)
Погода на Острове Врангеля (Чукотка, Россия) (238 км)
Погода в Эгвекиноте (Чукотка, Россия) (280 км)
Погода в Уэлене (Чукотка, Россия) (520 км)

Пояснения к столбцам:

Ветер - указаны скорость ветра в м/с - средняя за 10 мин, порывы в срок и между сроками (в фигурных скобках) и направление, откуда дует ветер: С - северный, СВ - северо-восточный, В - восточный, ЮВ - юго-восточный, Ю - южный, ЮЗ - юго-западный, З - западный, СЗ - северо-западный.
Видимость - горизонтальная дальность видимости в метрах или километрах. При видимости от 1 до 10 км при отсутствии осадков обычно наблюдается дымка, при ухудшении видимости до 1 км и менее - туман. В сухую погоду видимость может ухудшаться дымом, пылью или мглою.
Явления - указаны атмосферные явления, наблюдавшиеся в срок или в последний час перед сроком; фигурными скобками обозначены явления, наблюдавшиеся между сроками (за 1-3 часа до срока); квадратными скобками обозначены град или гололедные отложения с указанием их диаметра в мм.
Облачность - указаны через наклонную черту общая и нижняя облачность в баллах и высота нижней границы облаков в метрах; квадратными скобками обозначены формы облаков: Ci - перистые, Cs - перисто-слоистые, Cc - перисто-кучевые, Ac - высококучевые, As - высокослоистые, Sc - слоисто-кучевые, Ns - слоисто-дождевые, Cu - кучевые, Cb - кучево-дождевые. Подробнее классификацию облаков см. в Атласе облаков (PDF).
T - Температура воздуха - температура, измеренная на высоте 2 м над землей.
Td - Температура точки росы - температура, при понижении до которой содержащийся в воздухе водяной пар достигнет насыщения.
f - Относительная влажность воздуха - влажноcть воздуха, измеренная на высоте 2 м над землей.
Te - Эффективная температура - температура, которую ощущает одетый по сезону человек в тени. Характеристика душности погоды. При расчете учитывается влияние влажности воздуха и скорости ветра на теплоощущения человека.
Tes - Эффективная температура на солнце - температура, которую ощущает человек, с поправкой на солнечный нагрев. Характеристика знойности погоды. Зависит от высоты солнца над горизонтом, облачности и скорости ветра. Ночью, в пасмурную погоду, а также при ветре 12 м/с и более поправка равна нулю.
P - Атмосферное давление - приведенное к уровню моря атмосферное давление.
Po - Атмосферное давление - измеренное на уровне метеостанции атмосферное давление.
Tmin - Минимальная температура - минимум температуры воздуха на высоте 2 м над землей.
Tmax - Максимальная температура - максимум температуры воздуха на высоте 2 м над землей.
R - Количество осадков - Количество выпавших осадков за период времени, мм. При наведении курсора мыши на число - период времени, за который выпало указанное количество осадков.
R24 - Количество осадков - Количество выпавших осадков за 24 часа, мм.
S - Снежный покров - Высота снежного покрова, см. При наведении курсора мыши на число - состояние снежного покрова и степень покрытия местности в баллах.